Overview Statistics Trail Chart Weather Telemetry Raw packets
 

This is the latest recevied weather packets stored in our database for station/object KH6DH-13. If no packets are shown the sender has not sent any weather packets the latest 10 day(s).

<< 33 34 35 36 37 38 39 >>
Time Temp. Humidity Pressure Rain* Wind** Luminosity Snow
1788170672 24.44° C - - 0 mm 1.79 m/s, 184° - -
1788170070 24.44° C - - 0 mm 1.79 m/s, 98° - -
1788169467 24.44° C - - 0 mm 0.89 m/s, 312° - -
1788168861 24.44° C - - 0 mm 0.89 m/s, 332° - -
1788168258 24.44° C - - 0.25 mm 1.34 m/s, 215° - -
1788167657 24.44° C - - 0.25 mm 1.79 m/s, 101° - -
1788167056 24.44° C - - 0.25 mm 1.34 m/s, 155° - -
1788166455 24.44° C - - 0.25 mm 2.68 m/s, 283° - -
1788165854 24.44° C - - 0.25 mm 1.34 m/s, 136° - -
1788165253 25° C - - 0.25 mm 0.45 m/s, 339° - -
1788164652 25° C - - 0.51 mm 0.45 m/s, 139° - -
1788164051 25° C - - 0.51 mm 2.68 m/s, 63° - -
1788163450 25° C - - 0.51 mm 1.34 m/s, 58° - -
1788162849 25° C - - 0.51 mm 0 m/s - -
1788162248 24.44° C - - 0.51 mm 1.34 m/s, 38° - -
1788161647 24.44° C - - 0.51 mm 0 m/s - -
1788161042 25° C - - 0.25 mm 3.13 m/s, 13° - -
1788160441 25° C - - 0.25 mm 0.45 m/s, 69° - -
1788159840 25° C - - 0.25 mm 1.34 m/s, 27° - -
1788159239 25° C - - 0.25 mm 0.45 m/s, 266° - -
1788158638 25.56° C - - 0.25 mm 0 m/s - -
1788158037 25.56° C - - 0.25 mm 0.89 m/s, 97° - -
1788157436 26.11° C - - 0 mm 1.34 m/s, 336° - -
1788156833 26.11° C - - 0 mm 0 m/s - -
1788156232 26.11° C - - 0 mm 1.34 m/s, 246° - -

* Rain latest hour (hover to see other rain measurements)
** Current wind speed in m/s (hover to see current wind gust speed)